Погода в Ясын-Сокане

Россия / Астраханская область     46°39′57″N   48°07′20″E
темп.,
°C
ветер,
м/с
пор.,
м/с
влажн.,
%
обл.,
%
осадки,
мм/ч
давл.,
гПа
погр.,
м
24 сентября, пт
пт2401:00+14ссз5788100 2.4 1010288
04:00+14ссв5888100 3.7 1010317
07:00+15ссв61181100 0.0 1008461
10:00+18с3357100 0.0 1007836
13:00+20ссз6647100 0.0 10071099
16:00+18сз996070 0.0 1008963
19:00+13зсз8118167 0.0 1009445
22:00+13зсз71280100 0.0 1011547
25 сентября, сб
сб2501:00+12зсз510730 0.0 1012461
04:00+10зсз48790 0.0 1012221
07:00+10з35800 0.0 1012118
10:00+15зсз346097 0.0 1012535
13:00+18зсз3344100 0.0 10121052
16:00+19зсз3341100 0.0 10121523
19:00+17зюз1149100 0.0 101312
22:00+16юз345098 0.0 101490
26 сентября, вс
вс2601:00+14зсз3480100 0.1 1014245
04:00+14з41075100 0.2 1014443
07:00+12зюз48835 0.1 1014256
10:00+16з685716 0.1 1015786
13:00+18з79495 0.0 10141429
16:00+17з6945100 0.0 10141690
19:00+17з7104588 0.0 10131112
22:00+13зюз71381100 0.6 1011912
27 сентября, пн
пн2701:00+14зюз81385100 1.1 1009918
04:00+15з915755 2.8 1008730
07:00+12з813772 0.0 1009699
10:00+14зсз911635 0.0 10101118
13:00+17зсз10124410 0.0 10111849
16:00+17сз10124118 0.0 10122042
19:00+15зсз71044100 0.0 10141545
22:00+14зсз694956 0.0 1015816
28 сентября, вт
вт2801:00+12зсз487061 0.0 1015317
04:00+12зсз5769100 0.0 1016393
07:00+12зсз4672100 0.0 1017309
10:00+15с446019 0.0 1019731
13:00+18с444972 0.1 10201694
16:00+17с654646 0.2 10201529
19:00+13ссв685310 0.0 1023635
22:00+12ссв585340 0.0 1024389